Location: Wanzleben
(52.0609°N, 11.4408°E)
Time: 19:06:57
(UTC+00:00)

Ariane Rocket - Pass Details

Date: 18 September 2020
Orbit: 761 x 769 km, 98.7° (Epoch: 22 October)

Event Time Altitude Azimuth Distance (km) Brightness Sun altitude
Exits shadow 18:09:46 - 145° (SE) 3,125 5.7 -8.2°
Reaches altitude 10° 18:11:52 10° 141° (SE) 2,297 5.0 -8.5°
Maximum altitude 18:16:45 51° 67° (ENE) 965 3.2 -9.3°
Drops below altitude 10° 18:21:40 10° 353° (N) 2,318 5.8 -10.0°
Sets 18:24:02 0° 348° (NNW) 3,250 6.7 -10.3°
